SCP
0 0 0 0 0 0 0 0 0 0 0 0 0 0 0 0 0 0 0 0 0 0 0 0 0 0 0 0 0 0 0 0 0 0 0 0 0 0 0 0 0 0 0 0 0 0 0 0 0
0 0 0 0 0 0 0 0 0 0 0 0 0 0 0 0 0 0 0 0 0 0 0 0 0 0 0 0 0 0 0 0 0 0 0 0 0 0 0 0 0 0 0 0 0 0 0 0 0
0 0 0 0 0 0 0 0 0 0 0 0 0 0 0 0 0 0 0 0 0 0 0 0 0 0 0 0 0 0 0 0 0 0 0 0 0 0 0 0 0 0 0 0 0 0 0 0 0
0 0 0 0 0 0 0 0 0 0 0 0 0 0 0 0 0 0 0 0 0 0 0 0 0 0 0 0 0 0 0 0 0 0 0 0 0 0 0 0 0 0 0 0 0 0 0 0 0
0 0 0 0 0 0 0 0 0 0 0 0 0 0 0 0 0 0 0 0 0 0 0 0 0 0 0 0 0 0 0 0 0 0 0 0 0 0 0 0 0 0 0 0 0 0 0 0 0
0 0 0 0 0 0 0 0 0 0 0 0 0 0 0 0 0 0 0 0 0 0 0 0 0 0 0 0 0 0 0 0 0 0 0 0 0 0 0 0 0 0 0 0 0 0 0 0 0
0 0 0 0 0 0 0 0 0 0 0 0 0 0 0 0 0 0 0 0 0 0 0 0 0 0 0 0 0 0 0 0 0 0 0 0 0 0 0 0 0 0 0 0 0 0 0 0 0
0 0 0 0 0 0 0 0 0 0 0 0 0 0 0 0 0 0 0 0 0 0 0 0 0 0 0 0 0 0 0 0 0 0 0 0 0 0 0 0 0 0 0 0 0 0 0 0 0
0 0 0 0 0 0 0 0 0 0 0 0 0 0 0 0 0 0 0 0 0 0 0 0 0 0 0 0 0 0 0 0 0 0 0 0 0 0 0 0 0 0 0 0 0 0 0 0 0
0 0 0 0 0 0 0 0 0 0 0 0 0 0 0 0 0 0 0 0 0 0 0 0 0 0 0 0 0 0 0 0 0 0 0 0 0 0 0 0 0 0 0 0 0 0 0 0 0
0 0 0 0 0 0 0 0 0 0 0 0 0 0 0 0 0 0 0 0 0 0 -0 0 0 0 -0 0 0 0 0 0 0 0 0 0 0 0 0 0 0 0 0 0 0 0 0 0 0
0 0 0 0 0 0 0 0 0 0 0 0 0 0 0 0 0 0 0 0 0 0 0 0 0 -0 0 0 0 0 0 0 0 0 0 0 0 0 0 0 0 0 0 0 0 0 0 0 0
0 0 0 0 0 0 0 0 0 0 0 0 0 0 0 0 0 0 0 0 0 0 0 0 0 -0 -0 0 0 0 0 0 0 0 0 0 0 0 0 0 0 0 0 0 0 0 0 0 0
0 0 0 0 0 0 0 0 0 0 0 0 0 0 0 0 0 0 0 0 0 0 0 0 -0 -0 0 0 0 0 0 0 0 0 0 0 0 0 0 0 0 0 0 0 0 0 0 0 0
0 0 0 0 0 0 0 0 0 0 0 0 0 0 0 0 0 0 0 0 0 0 -0 -0 -0 -0 0 0 0 0 0 0 0 0 0 0 0 0 0 0 0 0 0 0 0 0 0 0 0
0 0 0 0 0 0 0 0 0 0 0 0 0 0 0 0 0 0 0 0 0 -0 -0 -0 0 0 0 0 0 0 0 0 0 0 0 0 0 0 0 0 0 0 0 0 0 0 0 0 0
0 0 0 0 0 0 0 0 0 0 0 0 0 0 0 0 0 0 0 -0 -0 -0 0 -0 0 0 0 0 0 0 0 0 0 0 0 0 0 0 0 0 0 0 0 0 0 0 0 0 0
0 0 0 0 0 0 0 0 0 0 0 0 0 0 0 0 -0 -0 -0 0 0 0 0 0 0 0 0 0 0 0 0 0 0 0 0 0 0 0 0 0 0 0 0 0 0 0 0 0 0
0 0 0 0 0 0 0 0 0 0 0 0 0 0 0 -0 -0 0 0 0 0 0 0 0 0 0 0 0 0 0 0 0 0 0 0 0 0 0 0 0 0 0 0 0 0 0 0 0 0
0 0 0 0 0 0 0 0 0 0 0 0 0 0 0 -0 0 0 0 0 0 0 0 0 0 0 0 0 0 0 0 0 0 0 0 0 0 0 0 0 0 0 0 0 0 0 0 0 0
0 0 0 0 0 0 0 0 0 0 0 0 0 0 -0 -0 0 0 0 0 0 0 0 0 0 0 0 0 0 0 0 0 0 0 0 0 0 0 0 0 0 0 0 0 0 0 0 0 0
0 0 0 0 0 0 0 0 0 0 0 0 0 -0 -0 0 0 0 0 0 0 0 0 0 0 0 0 0 0 0 0 0 0 0 0 0 0 0 0 0 0 0 0 0 0 0 0 0 0
0 0 0 0 0 0 0 0 0 0 0 0 0 0 -0 0 0 0 0 0 0 0 0 0 0 0 0 0 0 0 0 0 0 0 0 0 0 0 0 0 0 0 0 0 0 0 0 0 0
0 0 0 0 0 0 0 0 0 0 0 0 0 0 -0 0 0 0 0 0 0 0 0 0 0 0 0 0 0 0 0 0 0 0 0 0 0 0 0 0 0 -0 -0 0 0 0 0 0 0
0 0 0 0 0 0 0 0 0 0 0 0 0 0 -0 0 0 0 0 0 0 0 0 0 0 0 0 0 0 0 0 0 0 0 0 0 0 0 0 0 0 -0 -0 0 0 0 0 0 0
0 0 0 0 0 0 0 0 0 0 0 0 0 0 -0 0 0 0 0 0 0 0 0 0 0 0 0 0 0 0 0 0 0 0 0 0 0 0 0 0 0 -0 -0 -0 0 0 0 0 0
0 0 0 0 0 0 0 0 0 0 0 0 0 0 0 0 0 0 0 0 0 0 0 0 0 0 0 0 0 0 0 0 0 0 0 0 0 0 0 0 0 0 -0 -0 -0 0 0 0 0
0 0 0 0 0 0 0 0 0 0 0 0 -0 0 0 0 0 0 0 0 0 0 0 0 0 0 0 0 0 0 0 0 0 0 0 0 0 0 0 0 -0 0 0 -0 -0 -0 -0 0 0
0 0 0 0 0 0 0 0 0 0 0 0 0 0 0 0 0 0 0 0 0 0 0 0 0 0 0 0 0 0 0 0 0 0 0 0 0 0 0 0 -0 -0 0 -0 0 0 -0 0 0
0 0 0 0 0 0 0 0 0 0 0 0 0 0 0 0 0 0 0 0 0 0 0 0 0 0 0 0 0 0 0 0 0 0 0 0 0 0 0 0 -0 -0 -0 -0 -0 0 0 0 0
Wind_Speed_500mb
7 5 5 6 7 10 6 6 4 5 4 10 17 23 26 19 10 7 11 21 27 32 38 42 45 47 48 49 49 49 47 43 43 43 39 36 35 30 27 22 21 25 24 14 18 19 19 24 25
5 4 6 7 9 5 4 5 8 9 8 13 11 9 18 13 13 10 16 27 28 36 43 49 49 48 49 49 48 47 47 45 43 43 42 40 38 35 33 28 27 25 24 30 22 19 21 25 27
7 6 6 9 7 6 8 5 3 16 15 6 9 20 9 8 15 8 17 23 30 40 49 55 56 54 52 49 50 48 46 45 44 43 41 42 41 38 37 31 30 29 37 30 32 35 24 24 28
2 6 16 9 11 6 6 12 7 7 12 17 14 16 14 19 8 17 24 31 38 45 51 56 59 57 56 54 52 51 49 48 45 44 41 40 40 39 37 35 40 42 38 36 29 37 34 35 30
6 9 10 10 8 8 11 13 19 12 11 18 5 10 12 24 18 23 28 36 45 50 54 57 60 62 60 59 57 56 54 51 46 46 45 43 43 42 38 37 35 43 42 39 33 22 31 31 36
7 7 7 7 10 10 10 11 20 24 14 11 15 11 11 19 23 29 35 42 47 53 56 57 59 63 65 66 65 63 58 53 53 52 49 46 45 43 41 41 41 39 41 35 42 28 21 24 27
11 7 8 13 20 10 7 5 14 19 17 26 8 8 6 25 30 35 43 49 51 54 56 58 63 68 68 68 70 67 51 54 52 48 49 48 44 40 38 40 42 45 39 33 34 39 42 30 16
10 11 8 6 11 8 7 10 18 16 17 13 10 10 8 33 35 41 46 50 52 56 59 62 62 66 71 73 70 58 58 58 52 52 52 47 48 54 57 55 53 49 40 38 36 30 33 39 35
7 8 6 5 11 14 19 11 19 32 35 36 19 23 21 31 39 46 53 59 65 68 68 68 65 65 69 70 70 70 66 63 62 61 59 61 63 66 65 63 60 47 42 40 39 42 43 45 42
16 8 5 5 12 19 18 22 15 14 22 21 25 26 29 38 45 50 57 66 69 71 72 68 70 70 72 70 70 67 63 59 56 57 61 61 63 62 57 54 50 48 43 41 47 51 50 50 52
12 8 10 19 35 33 28 28 12 16 20 20 24 36 42 46 50 57 61 62 67 68 67 68 70 69 70 70 67 63 62 60 57 54 54 56 59 61 57 53 50 51 52 55 53 54 53 53 52
16 16 11 20 33 22 17 21 34 38 16 22 30 35 42 53 56 57 61 65 61 64 64 67 72 73 74 73 66 63 63 59 56 51 49 51 52 53 51 49 48 46 49 51 49 48 49 52 53
27 16 22 31 48 48 45 33 35 30 29 29 33 45 53 53 56 59 61 60 65 67 66 65 69 70 69 62 61 62 60 60 58 58 54 49 49 49 51 51 51 47 42 43 47 45 44 48 49
24 47 38 31 32 27 29 15 12 23 30 38 45 50 53 58 62 62 63 65 65 71 67 65 65 64 63 69 66 64 60 60 60 55 54 52 47 47 44 43 55 54 49 43 44 44 44 46 48
40 24 24 14 9 20 34 24 16 24 33 41 49 53 59 62 64 62 67 65 63 64 57 66 56 60 63 74 62 62 60 59 60 56 54 52 49 48 47 44 41 48 53 50 46 47 46 43 46
8 9 8 7 15 15 7 12 12 27 36 42 51 59 63 68 68 63 64 61 60 60 61 57 60 62 61 65 61 61 59 57 57 55 54 50 48 46 47 48 45 38 39 46 50 49 48 47 49
3 3 5 6 6 6 3 15 6 26 33 41 50 59 63 64 66 61 63 60 59 59 56 69 62 66 64 61 60 63 58 55 56 57 55 56 52 46 44 44 44 43 42 37 37 40 47 51 49
3 2 5 5 5 16 25 22 11 16 36 39 44 56 57 60 61 63 61 60 56 56 53 62 62 66 65 61 64 66 59 58 53 54 55 58 59 50 46 43 43 42 43 43 38 37 38 44 48
4 3 6 4 6 10 16 17 9 14 41 49 51 56 61 61 59 57 58 60 61 54 63 67 69 65 64 63 74 71 69 64 58 59 55 63 65 60 49 45 39 38 42 44 40 38 34 30 35
4 6 4 6 12 12 15 11 5 9 23 30 46 54 56 63 64 61 61 63 64 65 64 72 66 69 61 61 65 64 67 65 59 58 56 64 54 47 42 41 39 38 39 40 42 40 39 41 32
4 3 4 5 9 12 17 4 1 7 16 40 48 52 54 58 65 66 66 64 61 69 69 72 67 66 61 62 68 71 68 64 60 61 67 62 54 52 42 36 36 39 40 43 43 42 43 40 32
2 2 4 11 11 2 3 5 3 12 20 36 50 52 58 60 59 62 67 63 65 72 63 61 61 65 62 63 63 65 67 67 65 59 67 61 53 44 42 38 37 34 34 40 41 39 41 36 38
5 3 5 8 8 7 7 4 3 10 19 38 51 53 56 57 57 59 62 58 65 67 66 62 61 61 66 63 63 66 64 64 63 62 71 62 55 45 39 39 42 37 34 39 35 36 37 36 36
9 6 9 7 3 1 2 2 3 6 21 26 43 50 57 58 56 55 57 52 65 61 59 66 68 67 66 67 65 65 63 66 67 66 75 69 59 50 44 40 42 40 36 26 20 28 33 33 36
17 6 3 1 2 4 3 3 1 5 12 20 36 46 53 53 53 56 61 60 64 67 63 67 74 67 65 64 64 63 63 62 63 61 67 66 65 59 49 42 37 37 31 24 15 16 22 26 33
8 4 5 8 6 8 4 8 4 10 14 34 37 38 49 53 51 53 57 57 67 62 65 68 72 67 66 61 62 61 62 66 68 58 57 58 58 57 52 46 34 32 31 23 21 16 19 27 31
3 10 2 7 2 2 4 3 2 7 22 34 35 41 50 53 52 54 54 56 57 62 67 64 71 68 66 62 62 59 61 63 65 65 57 64 62 60 53 45 45 29 23 24 19 16 16 23 16
10 8 2 5 5 9 6 6 4 11 25 29 41 45 51 51 50 54 52 53 60 59 59 64 67 67 64 66 62 59 59 62 63 66 67 65 61 59 58 48 41 45 22 17 18 17 16 10 11
5 4 12 8 3 3 7 5 11 6 13 18 34 41 48 52 50 53 53 52 54 58 57 65 70 74 72 69 67 65 61 58 59 67 69 68 65 63 63 58 55 47 30 13 11 12 11 9 12
3 5 4 6 4 5 1 11 22 10 12 14 28 40 52 50 47 51 50 53 57 58 60 67 71 72 71 69 67 65 65 63 63 63 64 66 71 66 66 68 66 54 33 9 6 6 10 9 9
Wind_Direction_500mb
43 39 119 96 71 72 87 74 39 52 91 70 55 70 92 63 35 84 26 356 350 342 340 341 350 350 350 348 346 344 342 332 335 335 330 334 337 342 339 324 299 290 302 313 271 263 258 254 250
27 137 85 87 85 113 121 98 56 21 121 105 66 63 50 68 54 62 356 351 337 332 331 334 340 344 344 342 341 339 339 336 333 329 330 320 318 327 326 320 292 272 283 277 282 272 258 254 250
65 86 63 73 76 103 136 35 344 57 101 40 103 58 62 8 41 18 356 343 330 326 328 327 328 330 332 335 334 333 330 329 326 324 323 322 320 315 314 316 302 275 268 262 263 269 264 254 246
150 61 64 68 84 63 53 11 295 190 49 51 98 73 79 47 39 5 345 328 324 323 326 325 324 326 327 329 328 328 324 322 319 314 315 313 315 314 313 308 295 274 263 264 268 257 260 261 254
75 77 73 81 88 94 65 60 78 89 93 43 102 85 80 42 19 353 338 333 329 326 324 322 321 319 322 323 321 319 321 320 316 309 310 307 306 307 305 304 303 283 278 269 265 298 273 264 261
69 68 78 145 124 113 89 71 72 70 63 32 64 78 69 13 355 349 339 330 326 324 323 320 320 318 316 315 314 316 318 315 309 305 304 301 297 299 299 296 301 293 272 283 272 267 275 288 282
101 76 128 138 138 130 94 39 57 61 53 37 83 82 76 4 354 338 327 321 320 320 319 318 316 314 314 314 313 312 315 314 311 308 302 299 297 297 288 293 294 284 278 290 285 278 268 249 276
87 87 92 72 155 103 122 89 69 61 47 55 55 45 5 349 337 326 321 323 327 329 330 328 322 316 315 315 315 315 307 304 305 301 299 297 295 283 284 287 284 284 284 282 286 283 274 260 244
73 72 93 92 158 131 139 114 73 84 79 67 70 55 8 345 330 331 337 338 337 335 333 331 328 325 323 323 320 314 307 301 296 292 289 287 286 285 283 282 280 282 280 281 279 273 266 249 235
50 73 75 302 124 125 105 103 106 87 62 47 35 22 1 349 352 351 349 343 338 335 334 335 333 331 330 331 330 326 320 315 307 301 291 286 288 288 286 284 278 274 273 268 270 264 263 260 252
35 90 133 60 109 116 107 77 104 110 54 36 21 9 3 359 358 355 347 345 341 340 341 342 344 343 341 337 335 336 335 328 322 310 304 299 294 291 290 281 275 269 270 272 273 267 261 261 256
99 54 100 111 108 104 97 103 76 74 76 48 32 18 10 5 357 354 349 345 341 340 340 342 341 342 341 340 344 343 342 344 339 330 319 315 301 292 289 286 280 278 272 271 270 268 260 255 255
85 101 72 113 112 103 109 92 96 65 54 43 27 19 11 4 357 351 349 345 344 343 340 338 336 338 339 340 343 340 339 339 335 337 335 330 319 306 291 286 283 278 275 268 264 264 263 256 252
104 106 109 105 109 126 107 81 90 41 39 31 21 15 10 4 359 355 352 348 347 344 341 337 336 336 337 340 336 338 342 342 340 335 335 333 324 318 310 297 285 279 277 271 265 261 259 257 254
114 98 104 121 125 129 106 48 68 39 34 28 19 10 5 4 0 358 353 351 347 344 342 338 337 341 333 333 335 338 338 338 340 338 342 335 329 322 314 306 297 286 278 272 265 258 258 258 253
94 129 141 170 171 167 353 107 61 35 33 26 16 9 3 3 1 357 354 351 348 346 341 344 341 342 337 337 336 340 341 340 342 340 339 337 330 320 314 308 304 297 289 280 270 263 258 255 251
54 194 130 164 236 121 50 132 126 34 33 23 14 5 2 356 0 354 356 350 348 347 344 344 341 342 338 341 342 343 342 341 339 339 338 343 334 325 316 304 301 301 299 291 283 274 263 256 254
244 175 102 157 102 55 96 128 153 40 30 20 8 1 355 352 352 354 352 352 351 348 345 346 344 345 346 350 344 343 340 338 336 338 339 338 336 325 317 310 300 300 299 296 296 288 277 264 258
223 143 118 99 76 96 135 145 165 32 29 14 4 357 352 351 350 351 354 352 350 354 349 350 346 348 349 350 347 343 340 338 343 340 342 342 332 328 316 308 301 297 294 293 291 292 287 272 260
124 115 88 98 65 92 154 143 167 10 26 13 358 350 350 349 348 351 355 355 356 352 350 349 349 348 346 351 347 343 343 344 344 343 344 340 335 330 320 301 297 296 291 290 291 290 287 281 262
51 101 147 84 114 67 142 220 283 316 344 357 353 356 356 351 347 350 354 356 355 353 352 352 353 348 345 343 347 346 347 345 346 349 349 339 345 343 340 325 299 292 284 279 278 277 279 279 270
96 19 250 151 160 141 259 299 9 329 321 348 346 354 352 351 351 351 354 356 354 351 351 353 351 351 348 353 347 346 346 345 350 347 345 343 346 347 343 339 333 316 297 283 276 273 271 276 268
248 336 114 135 107 134 196 271 134 338 331 345 342 347 350 351 351 353 354 354 350 352 356 350 349 351 355 354 351 352 352 355 353 356 350 347 346 350 352 348 339 328 316 309 266 262 255 272 269
311 116 67 71 88 279 134 235 157 22 326 326 335 346 350 350 351 352 357 353 354 353 353 358 354 354 355 355 357 359 358 357 355 355 349 353 353 351 352 348 342 337 326 318 277 262 260 259 262
35 61 341 351 345 285 114 221 331 182 336 323 331 341 347 349 351 352 355 356 354 356 352 359 1 4 2 353 2 7 6 2 359 357 350 351 358 359 351 346 343 344 341 331 323 286 265 268 265
24 53 99 283 311 302 283 238 52 173 342 346 346 343 351 351 353 353 355 357 353 355 355 358 358 356 1 1 7 12 9 8 6 360 355 358 357 357 354 351 340 346 343 334 321 292 278 260 280
40 52 180 104 87 287 265 274 137 262 337 338 346 351 351 350 351 353 355 357 354 357 359 357 1 1 360 5 9 12 10 7 5 5 1 3 3 0 1 358 356 325 330 330 318 301 303 278 262
75 143 94 33 27 309 289 280 220 338 327 335 343 348 349 352 352 356 356 356 357 356 357 7 8 7 3 12 13 13 9 11 9 10 12 11 10 8 7 0 2 356 308 316 319 319 312 264 252
16 63 62 106 53 208 313 290 180 177 309 316 338 343 349 350 353 358 355 355 354 358 360 10 13 13 14 15 17 16 12 10 12 14 14 14 16 12 13 10 6 4 332 289 327 323 326 296 271
81 136 122 119 218 62 106 277 170 166 317 326 337 350 355 359 354 3 357 357 357 357 358 13 15 15 16 15 16 16 15 17 16 14 15 16 16 19 17 16 15 15 1 270 322 335 342 329 296
Wind_Speed_850mb
7 5 5 6 7 10 6 6 4 5 4 10 17 23 26 19 10 7 11 21 27 32 38 42 45 47 48 49 49 49 47 43 43 43 39 36 35 30 27 22 21 25 24 14 18 19 19 24 25
5 4 6 7 9 5 4 5 8 9 8 13 11 9 18 13 13 10 16 27 28 36 43 49 49 48 49 49 48 47 47 45 43 43 42 40 38 35 33 28 27 25 24 30 22 19 21 25 27
7 6 6 9 7 6 8 5 3 16 15 6 9 20 9 8 15 8 17 23 30 40 49 55 56 54 52 49 50 48 46 45 44 43 41 42 41 38 37 31 30 29 37 30 32 35 24 24 28
2 6 16 9 11 6 6 12 7 7 12 17 14 16 14 19 8 17 24 31 38 45 51 56 59 57 56 54 52 51 49 48 45 44 41 40 40 39 37 35 40 42 38 36 29 37 34 35 30
6 9 10 10 8 8 11 13 19 12 11 18 5 10 12 24 18 23 28 36 45 50 54 57 60 62 60 59 57 56 54 51 46 46 45 43 43 42 38 37 35 43 42 39 33 22 31 31 36
7 7 7 7 10 10 10 11 20 24 14 11 15 11 11 19 23 29 35 42 47 53 56 57 59 63 65 66 65 63 58 53 53 52 49 46 45 43 41 41 41 39 41 35 42 28 21 24 27
11 7 8 13 20 10 7 5 14 19 17 26 8 8 6 25 30 35 43 49 51 54 56 58 63 68 68 68 70 67 51 54 52 48 49 48 44 40 38 40 42 45 39 33 34 39 42 30 16
10 11 8 6 11 8 7 10 18 16 17 13 10 10 8 33 35 41 46 50 52 56 59 62 62 66 71 73 70 58 58 58 52 52 52 47 48 54 57 55 53 49 40 38 36 30 33 39 35
7 8 6 5 11 14 19 11 19 32 35 36 19 23 21 31 39 46 53 59 65 68 68 68 65 65 69 70 70 70 66 63 62 61 59 61 63 66 65 63 60 47 42 40 39 42 43 45 42
16 8 5 5 12 19 18 22 15 14 22 21 25 26 29 38 45 50 57 66 69 71 72 68 70 70 72 70 70 67 63 59 56 57 61 61 63 62 57 54 50 48 43 41 47 51 50 50 52
12 8 10 19 35 33 28 28 12 16 20 20 24 36 42 46 50 57 61 62 67 68 67 68 70 69 70 70 67 63 62 60 57 54 54 56 59 61 57 53 50 51 52 55 53 54 53 53 52
16 16 11 20 33 22 17 21 34 38 16 22 30 35 42 53 56 57 61 65 61 64 64 67 72 73 74 73 66 63 63 59 56 51 49 51 52 53 51 49 48 46 49 51 49 48 49 52 53
27 16 22 31 48 48 45 33 35 30 29 29 33 45 53 53 56 59 61 60 65 67 66 65 69 70 69 62 61 62 60 60 58 58 54 49 49 49 51 51 51 47 42 43 47 45 44 48 49
24 47 38 31 32 27 29 15 12 23 30 38 45 50 53 58 62 62 63 65 65 71 67 65 65 64 63 69 66 64 60 60 60 55 54 52 47 47 44 43 55 54 49 43 44 44 44 46 48
40 24 24 14 9 20 34 24 16 24 33 41 49 53 59 62 64 62 67 65 63 64 57 66 56 60 63 74 62 62 60 59 60 56 54 52 49 48 47 44 41 48 53 50 46 47 46 43 46
8 9 8 7 15 15 7 12 12 27 36 42 51 59 63 68 68 63 64 61 60 60 61 57 60 62 61 65 61 61 59 57 57 55 54 50 48 46 47 48 45 38 39 46 50 49 48 47 49
3 3 5 6 6 6 3 15 6 26 33 41 50 59 63 64 66 61 63 60 59 59 56 69 62 66 64 61 60 63 58 55 56 57 55 56 52 46 44 44 44 43 42 37 37 40 47 51 49
3 2 5 5 5 16 25 22 11 16 36 39 44 56 57 60 61 63 61 60 56 56 53 62 62 66 65 61 64 66 59 58 53 54 55 58 59 50 46 43 43 42 43 43 38 37 38 44 48
4 3 6 4 6 10 16 17 9 14 41 49 51 56 61 61 59 57 58 60 61 54 63 67 69 65 64 63 74 71 69 64 58 59 55 63 65 60 49 45 39 38 42 44 40 38 34 30 35
4 6 4 6 12 12 15 11 5 9 23 30 46 54 56 63 64 61 61 63 64 65 64 72 66 69 61 61 65 64 67 65 59 58 56 64 54 47 42 41 39 38 39 40 42 40 39 41 32
4 3 4 5 9 12 17 4 1 7 16 40 48 52 54 58 65 66 66 64 61 69 69 72 67 66 61 62 68 71 68 64 60 61 67 62 54 52 42 36 36 39 40 43 43 42 43 40 32
2 2 4 11 11 2 3 5 3 12 20 36 50 52 58 60 59 62 67 63 65 72 63 61 61 65 62 63 63 65 67 67 65 59 67 61 53 44 42 38 37 34 34 40 41 39 41 36 38
5 3 5 8 8 7 7 4 3 10 19 38 51 53 56 57 57 59 62 58 65 67 66 62 61 61 66 63 63 66 64 64 63 62 71 62 55 45 39 39 42 37 34 39 35 36 37 36 36
9 6 9 7 3 1 2 2 3 6 21 26 43 50 57 58 56 55 57 52 65 61 59 66 68 67 66 67 65 65 63 66 67 66 75 69 59 50 44 40 42 40 36 26 20 28 33 33 36
17 6 3 1 2 4 3 3 1 5 12 20 36 46 53 53 53 56 61 60 64 67 63 67 74 67 65 64 64 63 63 62 63 61 67 66 65 59 49 42 37 37 31 24 15 16 22 26 33
8 4 5 8 6 8 4 8 4 10 14 34 37 38 49 53 51 53 57 57 67 62 65 68 72 67 66 61 62 61 62 66 68 58 57 58 58 57 52 46 34 32 31 23 21 16 19 27 31
3 10 2 7 2 2 4 3 2 7 22 34 35 41 50 53 52 54 54 56 57 62 67 64 71 68 66 62 62 59 61 63 65 65 57 64 62 60 53 45 45 29 23 24 19 16 16 23 16
10 8 2 5 5 9 6 6 4 11 25 29 41 45 51 51 50 54 52 53 60 59 59 64 67 67 64 66 62 59 59 62 63 66 67 65 61 59 58 48 41 45 22 17 18 17 16 10 11
5 4 12 8 3 3 7 5 11 6 13 18 34 41 48 52 50 53 53 52 54 58 57 65 70 74 72 69 67 65 61 58 59 67 69 68 65 63 63 58 55 47 30 13 11 12 11 9 12
3 5 4 6 4 5 1 11 22 10 12 14 28 40 52 50 47 51 50 53 57 58 60 67 71 72 71 69 67 65 65 63 63 63 64 66 71 66 66 68 66 54 33 9 6 6 10 9 9
Wind_Direction_850mb
43 39 119 96 71 72 87 74 39 52 91 70 55 70 92 63 35 84 26 356 350 342 340 341 350 350 350 348 346 344 342 332 335 335 330 334 337 342 339 324 299 290 302 313 271 263 258 254 250
27 137 85 87 85 113 121 98 56 21 121 105 66 63 50 68 54 62 356 351 337 332 331 334 340 344 344 342 341 339 339 336 333 329 330 320 318 327 326 320 292 272 283 277 282 272 258 254 250
65 86 63 73 76 103 136 35 344 57 101 40 103 58 62 8 41 18 356 343 330 326 328 327 328 330 332 335 334 333 330 329 326 324 323 322 320 315 314 316 302 275 268 262 263 269 264 254 246
150 61 64 68 84 63 53 11 295 190 49 51 98 73 79 47 39 5 345 328 324 323 326 325 324 326 327 329 328 328 324 322 319 314 315 313 315 314 313 308 295 274 263 264 268 257 260 261 254
75 77 73 81 88 94 65 60 78 89 93 43 102 85 80 42 19 353 338 333 329 326 324 322 321 319 322 323 321 319 321 320 316 309 310 307 306 307 305 304 303 283 278 269 265 298 273 264 261
69 68 78 145 124 113 89 71 72 70 63 32 64 78 69 13 355 349 339 330 326 324 323 320 320 318 316 315 314 316 318 315 309 305 304 301 297 299 299 296 301 293 272 283 272 267 275 288 282
101 76 128 138 138 130 94 39 57 61 53 37 83 82 76 4 354 338 327 321 320 320 319 318 316 314 314 314 313 312 315 314 311 308 302 299 297 297 288 293 294 284 278 290 285 278 268 249 276
87 87 92 72 155 103 122 89 69 61 47 55 55 45 5 349 337 326 321 323 327 329 330 328 322 316 315 315 315 315 307 304 305 301 299 297 295 283 284 287 284 284 284 282 286 283 274 260 244
73 72 93 92 158 131 139 114 73 84 79 67 70 55 8 345 330 331 337 338 337 335 333 331 328 325 323 323 320 314 307 301 296 292 289 287 286 285 283 282 280 282 280 281 279 273 266 249 235
50 73 75 302 124 125 105 103 106 87 62 47 35 22 1 349 352 351 349 343 338 335 334 335 333 331 330 331 330 326 320 315 307 301 291 286 288 288 286 284 278 274 273 268 270 264 263 260 252
35 90 133 60 109 116 107 77 104 110 54 36 21 9 3 359 358 355 347 345 341 340 341 342 344 343 341 337 335 336 335 328 322 310 304 299 294 291 290 281 275 269 270 272 273 267 261 261 256
99 54 100 111 108 104 97 103 76 74 76 48 32 18 10 5 357 354 349 345 341 340 340 342 341 342 341 340 344 343 342 344 339 330 319 315 301 292 289 286 280 278 272 271 270 268 260 255 255
85 101 72 113 112 103 109 92 96 65 54 43 27 19 11 4 357 351 349 345 344 343 340 338 336 338 339 340 343 340 339 339 335 337 335 330 319 306 291 286 283 278 275 268 264 264 263 256 252
104 106 109 105 109 126 107 81 90 41 39 31 21 15 10 4 359 355 352 348 347 344 341 337 336 336 337 340 336 338 342 342 340 335 335 333 324 318 310 297 285 279 277 271 265 261 259 257 254
114 98 104 121 125 129 106 48 68 39 34 28 19 10 5 4 0 358 353 351 347 344 342 338 337 341 333 333 335 338 338 338 340 338 342 335 329 322 314 306 297 286 278 272 265 258 258 258 253
94 129 141 170 171 167 353 107 61 35 33 26 16 9 3 3 1 357 354 351 348 346 341 344 341 342 337 337 336 340 341 340 342 340 339 337 330 320 314 308 304 297 289 280 270 263 258 255 251
54 194 130 164 236 121 50 132 126 34 33 23 14 5 2 356 0 354 356 350 348 347 344 344 341 342 338 341 342 343 342 341 339 339 338 343 334 325 316 304 301 301 299 291 283 274 263 256 254
244 175 102 157 102 55 96 128 153 40 30 20 8 1 355 352 352 354 352 352 351 348 345 346 344 345 346 350 344 343 340 338 336 338 339 338 336 325 317 310 300 300 299 296 296 288 277 264 258
223 143 118 99 76 96 135 145 165 32 29 14 4 357 352 351 350 351 354 352 350 354 349 350 346 348 349 350 347 343 340 338 343 340 342 342 332 328 316 308 301 297 294 293 291 292 287 272 260
124 115 88 98 65 92 154 143 167 10 26 13 358 350 350 349 348 351 355 355 356 352 350 349 349 348 346 351 347 343 343 344 344 343 344 340 335 330 320 301 297 296 291 290 291 290 287 281 262
51 101 147 84 114 67 142 220 283 316 344 357 353 356 356 351 347 350 354 356 355 353 352 352 353 348 345 343 347 346 347 345 346 349 349 339 345 343 340 325 299 292 284 279 278 277 279 279 270
96 19 250 151 160 141 259 299 9 329 321 348 346 354 352 351 351 351 354 356 354 351 351 353 351 351 348 353 347 346 346 345 350 347 345 343 346 347 343 339 333 316 297 283 276 273 271 276 268
248 336 114 135 107 134 196 271 134 338 331 345 342 347 350 351 351 353 354 354 350 352 356 350 349 351 355 354 351 352 352 355 353 356 350 347 346 350 352 348 339 328 316 309 266 262 255 272 269
311 116 67 71 88 279 134 235 157 22 326 326 335 346 350 350 351 352 357 353 354 353 353 358 354 354 355 355 357 359 358 357 355 355 349 353 353 351 352 348 342 337 326 318 277 262 260 259 262
35 61 341 351 345 285 114 221 331 182 336 323 331 341 347 349 351 352 355 356 354 356 352 359 1 4 2 353 2 7 6 2 359 357 350 351 358 359 351 346 343 344 341 331 323 286 265 268 265
24 53 99 283 311 302 283 238 52 173 342 346 346 343 351 351 353 353 355 357 353 355 355 358 358 356 1 1 7 12 9 8 6 360 355 358 357 357 354 351 340 346 343 334 321 292 278 260 280
40 52 180 104 87 287 265 274 137 262 337 338 346 351 351 350 351 353 355 357 354 357 359 357 1 1 360 5 9 12 10 7 5 5 1 3 3 0 1 358 356 325 330 330 318 301 303 278 262
75 143 94 33 27 309 289 280 220 338 327 335 343 348 349 352 352 356 356 356 357 356 357 7 8 7 3 12 13 13 9 11 9 10 12 11 10 8 7 0 2 356 308 316 319 319 312 264 252
16 63 62 106 53 208 313 290 180 177 309 316 338 343 349 350 353 358 355 355 354 358 360 10 13 13 14 15 17 16 12 10 12 14 14 14 16 12 13 10 6 4 332 289 327 323 326 296 271
81 136 122 119 218 62 106 277 170 166 317 326 337 350 355 359 354 3 357 357 357 357 358 13 15 15 16 15 16 16 15 17 16 14 15 16 16 19 17 16 15 15 1 270 322 335 342 329 296